Погода в Хоробичах

Украина / Черниговская область     52°01′26″N   31°30′44″E
темп.,
°C
ветер,
м/с
пор.,
м/с
влажн.,
%
обл.,
%
осадки,
мм/ч
давл.,
гПа
погр.,
м
7 мая, пт
пт700:00+6зюз22735 0.0 101224
03:00+5юз227429 0.0 101318
06:00+4ююз337412 0.0 101240
09:00+11ю475969 0.0 1013487
12:00+14ю6950100 0.0 10121608
15:00+14ю6959100 0.2 10101883
18:00+10ю61287100 1.9 1008758
21:00+10ю61392100 4.3 1007573
8 мая, сб
сб800:00+10ююз41097100 0.4 1006292
03:00+9юз3795100 2.3 1005234
06:00+9зюз2398100 1.4 1004149
09:00+10з4588100 1.6 1005542
12:00+7з71094100 1.1 1007592
15:00+6з71094100 4.1 1008959
18:00+5сз71296100 6.4 1011988
21:00+6зсз6128596 7.0 1013668
9 мая, вс
вс900:00+3зсз412905 0.0 1015273
03:00+2зсз514880 0.0 1018363
06:00+2зсз512923 0.0 1020309
09:00+7сз69682 0.0 1022848
12:00+11ссз68475 0.0 10231722
15:00+12ссз57435 0.0 10232017
18:00+12ссз35535 0.0 10241682
21:00+7с12625 0.0 102610
10 мая, пн
пн1000:00+5св00645 0.0 102710
03:00+4юз11675 0.0 102810
06:00+4ююв00704 0.0 102910
09:00+11вюв11560 0.0 1030336
12:00+14св22455 0.0 10291249
15:00+16св33420 0.0 10281513
18:00+15всв34541 0.0 1027994
21:00+9св33690 0.0 102831
11 мая, вт
вт1100:00+7св34750 0.0 102844
03:00+6св35790 0.0 102873
06:00+5св39800 0.0 1027164
09:00+12св58640 0.0 1026432
12:00+16св57580 0.0 1025740
15:00+19всв56580 0.0 10231011
18:00+19всв58690 0.0 10231058
21:00+14вюв411894 0.1 1023339